www.pogodaiklimat.ru

Погода и климат >> Архив погоды >> Иран >> Ираншехр


ПОГОДА в Ираншехре

  • Прогноз погоды в Ираншехре
  • Монитор погоды в Ираншехре

АРХИВ ПОГОДЫ в Ираншехре

Время (UTC), дата Ветер
(напр.,м/с)
 
Видим.   Явления Облачность Т
(С)
Тd
(С)
f
(%)
Тe
(С)
Тes
(С)
Комфортность P
(гПа)
Po
(гПа)
Тmin
(С)
Tmax
(С)
R
(мм)
R24
(мм)
S
(см)
21 16.09 СВ 2 10 км 3/0
[Ci sp]
+27.6 -6.3 10 +24 +24 комфорт 1004.0 940.7
00 17.09 С 2 10 км ясно +26.7 -5.2 12 +24 +24 комфорт 1004.2 940.7
03 17.09 штиль 0 10 км 3/0
[Ci fib]
+28.1 -3.2 13 +25 +27 комфорт 1006.1 942.4 +25.4 666
06 17.09 ЮЗ 3 6000 м мгла 5/0
[Cs]
+34.0 -0.3 11 +30 +41 жарко 1006.5 943.1
09 17.09 Ю 3 12 км 3/0
[Ci sp]
+39.2 +0.1 9 +35 +48 очень
жарко
1003.3 940.0
12 17.09 Ю 4 20 км 1/0
[Ci sp]
+42.0 -1.2 7 +38 +41 очень
жарко
1000.7 937.7
15 17.09 СЗ 5 12 км 1/0
[Ci sp]
+37.7 -2.6 8 +34 +34 очень
жарко
1001.3 938.0 +42.2 666
18 17.09 С 5 12 км ясно +34.4 -1.9 10 +31 +31 жарко 1002.4 939.3
21 17.09 СВ 3 12 км ясно +30.3 -2.7 12 +27 +27 жарко 1003.2 940.1
00 18.09 СВ 2 12 км ясно +26.6 -4.4 13 +24 +24 комфорт 1003.5 940.3
03 18.09 С 2 15 км 1/0
[Ci sp]
+27.5 -3.9 12 +25 +26 комфорт 1006.0 942.3 +24.5 666
06 18.09 СЗ 2 15 км ясно +36.7 -1.9 9 +33 +46 жарко 1006.5 943.4
09 18.09 ЮЗ 4 15 км ясно +39.8 -1.5 7 +36 +47 очень
жарко
1004.5 941.4 666
12 18.09 ЮЗ 5 20 км ясно +41.3 -0.1 8 +38 +40 очень
жарко
1002.9 939.7
15 18.09 З 2 15 км 3/0
[Ci sp]
+37.5 -4.0 7 +33 +33 жарко 1003.9 940.3 +41.7 666
18 18.09 ЮВ 2 12 км ясно +30.9 -4.0 10 +27 +27 жарко 1004.9 941.5
21 18.09 С 3 12 км ясно +29.4 +7.6 25 +28 +28 жарко 1004.8 941.7
00 19.09 С 4 12 км ясно +28.1 +4.0 21 +27 +27 жарко 1005.1 942.0
03 19.09 СВ 2 15 км ясно +27.7 +0.6 17 +26 +27 жарко 1007.4 943.7 +25.5
06 19.09 штиль 0 15 км ясно +36.8 +8.3 18 +35 +53 опасность
солнечного
удара
1007.8 944.4
09 19.09 ЮЗ 3 20 км ясно +40.1 +6.0 13 +37 +51 опасность
солнечного
удара
1005.1 942.0
12 19.09 штиль 0 20 км ясно +41.9 +0.4 8 +38 +44 очень
жарко
1003.0 940.0
15 19.09 З 3 15 км ясно +37.5 -1.2 9 +34 +34 очень
жарко
1003.3 939.8 +42.9
18 19.09 З 5 12 км ясно +34.2 +9.2 22 +33 +33 жарко 1004.1 941.3
21 19.09 СВ 2 12 км ясно +29.3 +4.4 21 +28 +28 жарко 1004.2 941.1
00 20.09 С 2 12 км ясно +27.6 +8.9 31 +28 +28 жарко 1003.9 940.9
03 20.09 С 2 12 км ясно +28.5 +7.4 26 +28 +29 жарко 1006.0 942.5 +26.5
06 20.09 З 3 12 км ясно +34.9 +11.7 25 +35 +46 очень
жарко
1006.0 942.9
09 20.09 З 2 12 км ясно +39.6 +9.7 17 +38 +54 опасность
солнечного
удара
1003.0 940.0
12 20.09 ЮЗ 3 15 км ясно +41.5 +4.8 11 +39 +42 очень
жарко
1000.8 937.9
15 20.09 З 3 10 км ясно +38.3 +2.9 11 +35 +35 очень
жарко
1001.2 938.0 +41.7
18 20.09 СЗ 3 12 км ясно +35.1 +1.0 12 +32 +32 жарко 1002.0 939.1
21 20.09 С 2 12 км ясно +18.6 +9.3 25 +31 +31 очень
душно
1001.9 939.2
00 21.09 С 2 12 км ясно +29.3 +11.1 32 +30 +30 жарко 1001.9 939.2
03 21.09 СВ 2 10 км ясно +28.9 +10.7 32 +29 +30 жарко 1003.9 940.7 +27.1
06 21.09 З 3 12 км ясно +35.2 +12.7 26 +35 +46 очень
жарко
1004.3 941.5
09 21.09 З 3 12 км 1/1 1200 м
[Cu hum]
+39.4 +10.2 17 +38 +50 очень
жарко
1001.5 938.8 666
12 21.09 З 3 15 км 1/1 1200 м
[Cu hum]
+41.1 +6.0 12 +38 +41 очень
жарко
999.7 937.0
15 21.09 З 3 10 км ясно +38.0 +4.1 12 +35 +35 очень
жарко
1000.1 937.0 +41.9
18 21.09 З 3 10 км ясно +33.9 +7.2 19 +32 +32 жарко 1002.0 939.1
21 21.09 С 2 12 км ясно +30.9 +8.6 25 +30 +30 жарко 1002.0 939.2
00 22.09 С 2 12 км ясно +29.2 +7.6 26 +28 +28 жарко 1002.2 939.4
03 22.09 С 3 12 км ясно +29.1 +8.5 28 +29 +30 жарко 1004.5 941.2 +27.0
06 22.09 штиль 0 20 км ясно +37.3 +12.0 22 +37 +54 опасность
солнечного
удара
1005.1 942.3
09 22.09 З 3 15 км 1/1 1200 м
[Cu hum]
+39.9 +11.1 18 +39 +51 опасность
солнечного
удара
1002.4 939.7
12 22.09 Ю 2 15 км 1/1 1200 м
[Cu hum]
+41.7 +4.9 11 +39 +42 очень
жарко
1000.9 938.2
15 22.09 З 3 12 км ясно +38.0 +3.3 12 +35 +35 очень
жарко
1001.7 938.5 +42.9
18 22.09 ЮЗ 2 12 км ясно +34.1 +9.3 22 +33 +33 жарко 1003.6 940.8
21 22.09 С 2 12 км ясно +30.9 +9.6 27 +30 +30 жарко 1003.6 940.8
00 23.09 штиль 0 12 км ясно +28.6 +9.0 29 +28 +28 жарко 1004.1 941.2
03 23.09 СВ 2 10 км ясно +29.2 +9.1 28 +29 +30 жарко 1006.2 942.9 +27.5
06 23.09 ЮЗ 2 12 км ясно +36.3 +13.7 26 +37 +50 очень
жарко
1007.0 944.0
09 23.09 ЮЗ 2 12 км 1/1 1350 м
[Sc diur, vesp]
+40.3 +11.8 18 +39 +53 опасность
солнечного
удара
1003.9 941.2
12 23.09 ЮЗ 3 12 км 1/1 1350 м
[Sc diur, vesp]
+41.5 +9.4 15 +40 +43 очень
жарко
1002.0 939.2
15 23.09 З 2 12 км 1/1 1350 м
[Sc diur, vesp]
+38.5 +7.5 15 +36 +36 очень
жарко
1002.6 939.5 +42.6 666
18 23.09 З 2 12 км ясно +34.7 +9.2 21 +33 +33 жарко 1004.7 941.8

 

Местоположение метеостанции Ираншехр (Иран): широта 27.20 долгота 60.70 высота над уровнем моря 591 м.

В архиве по умолчанию представлена погода в Ираншехре за последнюю неделю. Архивные данные за месяц целиком и за предыдущие месяцы, начиная с января 2011 года, Вы можете получить, выбрав интересующий диапазон дат из раскрывающегося списка и нажав кнопку "Ввод!".


*Определитесь, кто Вы:
робот инопланетянин человек

Внимание! Время в таблицах - всемирное. Для получения местного времени необходимо прибавить поправку, которая равна 3.5 ч.

Смотрите также архив погоды в соседних городах и на ближайших метеорологических станциях:

Погода в Сараване (Иран) (162 км)
Погода в Аэропорту Конарак (Иран) (214 км)
Погода в Захедане (Иран) (253 км)
Погода в Дживани (Пакистан) (261 км)
Погода в Нок-Кунди (Пакистан) (270 км)
Погода в Гавадаре (Пакистан) (282 км)
Погода в Кехнудже (Иран) (308 км)
Погода в Баме (Иран) (309 км)
Погода в Панджгуре (Пакистан) (338 км)
Погода в Джаске (Иран) (340 км)

Пояснения к столбцам:

Ветер - указаны скорость ветра в м/с - средняя за 10 мин, порывы в срок и между сроками (в фигурных скобках) и направление, откуда дует ветер: С - северный, СВ - северо-восточный, В - восточный, ЮВ - юго-восточный, Ю - южный, ЮЗ - юго-западный, З - западный, СЗ - северо-западный.
Видимость - горизонтальная дальность видимости в метрах или километрах. При видимости от 1 до 10 км при отсутствии осадков обычно наблюдается дымка, при ухудшении видимости до 1 км и менее - туман. В сухую погоду видимость может ухудшаться дымом, пылью или мглою.
Явления - указаны атмосферные явления, наблюдавшиеся в срок или в последний час перед сроком; фигурными скобками обозначены явления, наблюдавшиеся между сроками (за 1-3 часа до срока); квадратными скобками обозначены град или гололедные отложения с указанием их диаметра в мм.
Облачность - указаны через наклонную черту общая и нижняя облачность в баллах и высота нижней границы облаков в метрах; квадратными скобками обозначены формы облаков: Ci - перистые, Cs - перисто-слоистые, Cc - перисто-кучевые, Ac - высококучевые, As - высокослоистые, Sc - слоисто-кучевые, Ns - слоисто-дождевые, Cu - кучевые, Cb - кучево-дождевые. Подробнее классификацию облаков см. в Атласе облаков (PDF).
T - Температура воздуха - температура, измеренная на высоте 2 м над землей.
Td - Температура точки росы - температура, при понижении до которой содержащийся в воздухе водяной пар достигнет насыщения.
f - Относительная влажность воздуха - влажноcть воздуха, измеренная на высоте 2 м над землей.
Te - Эффективная температура - температура, которую ощущает одетый по сезону человек в тени. Характеристика душности погоды. При расчете учитывается влияние влажности воздуха и скорости ветра на теплоощущения человека.
Tes - Эффективная температура на солнце - температура, которую ощущает человек, с поправкой на солнечный нагрев. Характеристика знойности погоды. Зависит от высоты солнца над горизонтом, облачности и скорости ветра. Ночью, в пасмурную погоду, а также при ветре 12 м/с и более поправка равна нулю.
P - Атмосферное давление - приведенное к уровню моря атмосферное давление.
Po - Атмосферное давление - измеренное на уровне метеостанции атмосферное давление.
Tmin - Минимальная температура - минимум температуры воздуха на высоте 2 м над землей.
Tmax - Максимальная температура - максимум температуры воздуха на высоте 2 м над землей.
R - Количество осадков - Количество выпавших осадков за период времени, мм. При наведении курсора мыши на число - период времени, за который выпало указанное количество осадков.
R24 - Количество осадков - Количество выпавших осадков за 24 часа, мм.
S - Снежный покров - Высота снежного покрова, см. При наведении курсора мыши на число - состояние снежного покрова и степень покрытия местности в баллах.